Stations météo

réclame
Mon MeteoGroup
Hohenfels, Allemagne (10775): Température de l'air & dewpoint: 17.10.2018 07:00:00 - 23.10.2018 07:00:00 (CEST)Hohenfels, Allemagne (10775): Vitesse du vent: 17.10.2018 07:00:00 - 23.10.2018 07:00:00 (CEST)Hohenfels, Allemagne (10775): Direction du vent: 17.10.2018 07:00:00 - 23.10.2018 07:00:00 (CEST)Hohenfels, Allemagne (10775): reduced air pressure: 17.10.2018 07:00:00 - 23.10.2018 07:00:00 (CEST)Hohenfels, Allemagne (10775): visibility: 17.10.2018 07:00:00 - 23.10.2018 07:00:00 (CEST)Hohenfels, Allemagne (10775): Quantités de précipitations: 17.10.2018 07:00:00 - 23.10.2018 07:00:00 (CEST)
Date & Time tt [°C] td [°C] ff [km/h] ff [knt] dd ppp [hPa] vv [km] rr [mm]
23.10.2018 07:00:00 5,8 5,7 8 4 SW 1027,9 10 -
23.10.2018 06:00:00 5,5 5,5 0 0 N 1029,3 10 -
23.10.2018 05:00:00 5,8 5,8 0 0 N 1029,6 10 -
23.10.2018 04:00:00 6,6 6,5 0 0 N 1030,1 10 -
23.10.2018 03:00:00 7,0 6,9 5 3 NW 1030,3 10 -
23.10.2018 02:00:00 7,2 7,1 0 0 N 1030,5 10 -
23.10.2018 01:00:00 7,3 7,2 0 0 N 1031,1 10 -
23.10.2018 00:00:00 7,5 7,4 0 0 N 1031,7 10 -
22.10.2018 23:00:00 8,0 7,9 5 3 NNE 1031,2 10 0,0
22.10.2018 22:00:00 8,9 8,9 0 0 N 1031,6 9 0,0
22.10.2018 21:00:00 8,9 8,7 5 3 NW 1031,7 10 1,0
22.10.2018 20:00:00 10,5 6,8 9 5 WNW 1030,7 10 0,0
22.10.2018 19:00:00 11,1 5,8 5 3 W 1030,1 10 -
22.10.2018 18:00:00 12,1 5,7 5 3 W 1029,4 10 -
22.10.2018 17:00:00 12,7 5,4 8 4 WNW 1028,9 10 -
22.10.2018 16:00:00 13,7 5,1 8 4 NNW 1028,7 10 -
22.10.2018 15:00:00 14,0 4,3 9 5 NW 1028,3 10 -
22.10.2018 14:00:00 13,2 5,4 8 4 NW 1028,7 10 -
22.10.2018 13:00:00 12,3 5,2 0 0 N 1028,9 10 -
22.10.2018 12:00:00 10,5 6,3 0 0 N 1029,6 10 -
22.10.2018 11:00:00 7,9 5,7 0 0 N 1030,1 10 -
22.10.2018 10:00:00 3,1 2,8 0 0 N 1030,5 10 -
22.10.2018 09:00:00 -0,5 -0,6 0 0 N 1030,4 10 -
22.10.2018 08:00:00 -2,1 -2,2 0 0 N 1029,7 10 -
22.10.2018 07:00:00 -1,7 -1,8 5 3 NNW 1029,2 10 -
22.10.2018 06:00:00 -1,6 -1,7 0 0 N 1028,8 10 -
22.10.2018 05:00:00 -1,6 -1,7 0 0 N 1028,6 10 -
22.10.2018 04:00:00 -1,0 -1,1 0 0 N 1028,6 10 -
22.10.2018 03:00:00 -0,8 -0,9 0 0 N 1028,6 10 -
22.10.2018 02:00:00 0,1 0,0 0 0 N 1028,9 10 -
22.10.2018 01:00:00 0,1 0,0 0 0 N 1029,2 10 -
22.10.2018 00:00:00 1,1 1,0 0 0 N 1029,0 10 -
21.10.2018 23:00:00 1,7 1,6 0 0 N 1029,2 10 -
21.10.2018 22:00:00 2,8 2,7 0 0 N 1029,2 10 -
21.10.2018 21:00:00 3,8 3,1 0 0 N 1029,4 10 -
21.10.2018 20:00:00 5,7 3,9 0 0 N 1029,4 10 -
21.10.2018 19:00:00 7,7 4,3 5 3 W 1029,0 10 -
21.10.2018 18:00:00 11,5 4,7 0 0 N 1028,3 10 -
21.10.2018 17:00:00 13,6 5,5 5 3 E 1028,1 10 -
21.10.2018 16:00:00 12,9 5,3 5 3 NE 1028,4 10 -
21.10.2018 15:00:00 12,0 5,2 0 0 N 1028,9 10 -
21.10.2018 14:00:00 12,0 4,7 5 3 NNE 1029,5 10 -
21.10.2018 13:00:00 11,6 5,9 8 4 ENE 1029,6 10 -
21.10.2018 12:00:00 12,2 7,1 8 4 E 1030,2 10 -
21.10.2018 11:00:00 10,6 6,9 5 3 E 1030,3 10 -
21.10.2018 10:00:00 8,0 6,6 0 0 N 1030,7 10 -
21.10.2018 09:00:00 5,9 5,8 5 3 NNW 1030,7 10 -
21.10.2018 08:00:00 4,8 4,7 0 0 N 1030,1 10 -
21.10.2018 07:00:00 5,4 5,3 0 0 N 1029,5 10 -
21.10.2018 06:00:00 4,9 4,8 0 0 N 1029,6 10 -
21.10.2018 05:00:00 5,7 5,6 0 0 N 1028,9 10 -
21.10.2018 04:00:00 6,1 6,0 5 3 NW 1028,9 10 -
21.10.2018 03:00:00 5,1 5,0 0 0 N 1029,1 10 -
21.10.2018 02:00:00 4,8 4,7 0 0 N 1029,3 10 -
21.10.2018 01:00:00 5,2 5,1 8 4 NNW 1029,8 10 -
21.10.2018 00:00:00 4,9 4,8 0 0 N 1030,2 10 -
20.10.2018 23:00:00 6,2 6,1 0 0 N 1030,4 10 -
20.10.2018 22:00:00 6,7 6,6 0 0 N 1030,1 10 -
20.10.2018 21:00:00 8,0 7,9 0 0 N 1030,1 10 -
20.10.2018 20:00:00 8,8 7,9 0 0 N 1029,5 10 -
20.10.2018 19:00:00 10,1 8,2 5 3 W 1029,2 10 -
20.10.2018 18:00:00 13,4 8,9 8 4 WNW 1028,3 10 -
20.10.2018 17:00:00 15,0 8,9 5 3 NW 1028,1 10 -
20.10.2018 16:00:00 15,4 9,3 13 7 NW 1028,4 10 -
20.10.2018 15:00:00 15,4 9,7 8 4 NW 1028,6 10 -
20.10.2018 14:00:00 13,0 13,0 0 0 N 1029,3 10 -
20.10.2018 13:00:00 11,8 11,8 0 0 N 1029,8 10 -
20.10.2018 12:00:00 10,3 10,3 0 0 N 1029,8 6 -
20.10.2018 11:00:00 8,6 8,6 0 0 N 1029,5 0,4 -
20.10.2018 10:00:00 8,0 8,0 0 0 N 1029,4 0,2 -
20.10.2018 09:00:00 6,1 6,1 0 0 N 1029,0 0,2 -
20.10.2018 08:00:00 6,5 6,5 0 0 N 1028,1 0,2 -
20.10.2018 07:00:00 6,6 6,6 0 0 N 1027,6 0,4 -
20.10.2018 06:00:00 5,6 5,6 0 0 N 1026,7 0,4 -
20.10.2018 05:00:00 5,0 5,0 0 0 N 1026,0 0,6 -
20.10.2018 04:00:00 4,2 4,2 0 0 N 1026,0 4,0 -
20.10.2018 03:00:00 3,1 3,1 0 0 N 1026,0 0,4 -
20.10.2018 02:00:00 4,3 4,2 0 0 N 1026,0 1,4 -
20.10.2018 01:00:00 4,4 4,3 0 0 N 1025,7 5 -
20.10.2018 00:00:00 5,1 5,0 0 0 N 1025,9 6 -
19.10.2018 23:00:00 6,1 6,0 0 0 N 1025,5 8 -
19.10.2018 22:00:00 7,3 7,2 5 3 NNW 1025,7 8 -
19.10.2018 21:00:00 8,3 8,2 0 0 N 1025,3 10 -
19.10.2018 20:00:00 9,5 9,3 0 0 N 1025,3 10 -
19.10.2018 19:00:00 11,7 10,4 0 0 N 1024,4 10 -
19.10.2018 18:00:00 14,0 11,2 0 0 N 1023,3 10 -
19.10.2018 17:00:00 15,7 11,7 0 0 N 1023,4 10 -
19.10.2018 16:00:00 16,4 11,5 0 0 N 1022,9 10 -
19.10.2018 15:00:00 16,5 11,8 9 5 N 1022,9 10 -
19.10.2018 14:00:00 16,0 11,8 0 0 N 1023,2 10 -
19.10.2018 13:00:00 15,1 11,5 8 4 NE 1023,9 10 -
19.10.2018 12:00:00 13,7 11,2 8 4 ENE 1023,9 10 -
19.10.2018 11:00:00 12,1 11,2 0 0 N 1024,4 9 -
19.10.2018 10:00:00 8,5 8,5 0 0 N 1024,3 6 -
19.10.2018 09:00:00 5,3 5,3 0 0 N 1024,2 2,0 -
19.10.2018 08:00:00 3,9 3,9 0 0 N 1023,7 4,4 -
19.10.2018 07:00:00 5,0 5,0 0 0 N 1023,1 3,2 -
19.10.2018 06:00:00 5,0 5,0 0 0 N 1022,7 1,8 -
19.10.2018 05:00:00 5,8 5,7 0 0 N 1022,5 4,4 -
19.10.2018 04:00:00 7,4 7,4 5 3 N 1022,4 3,6 -
19.10.2018 03:00:00 7,3 7,2 0 0 N 1022,4 3,6 -
19.10.2018 02:00:00 8,7 8,5 0 0 N 1022,2 6 -
19.10.2018 01:00:00 9,2 9,0 0 0 N 1022,4 6 -
19.10.2018 00:00:00 9,6 9,4 0 0 N 1022,4 9 -
18.10.2018 23:00:00 10,3 9,8 5 3 NNW 1022,5 10 -
18.10.2018 22:00:00 11,0 9,7 0 0 N 1022,6 10 -
18.10.2018 21:00:00 12,5 9,9 5 3 WNW 1022,2 10 -
18.10.2018 20:00:00 13,0 10,2 0 0 N 1022,0 10 -
18.10.2018 19:00:00 13,9 10,5 0 0 N 1021,1 10 -
18.10.2018 18:00:00 17,3 11,6 0 0 N 1020,0 10 -
18.10.2018 17:00:00 18,6 11,6 9 5 NNW 1019,8 10 -
18.10.2018 16:00:00 19,1 12,1 8 4 N 1019,8 10 -
18.10.2018 15:00:00 18,9 12,2 0 0 N 1019,8 10 -
18.10.2018 14:00:00 18,4 12,2 9 5 ENE 1020,2 10 -
18.10.2018 13:00:00 17,5 11,7 9 5 NE 1020,5 10 -
18.10.2018 12:00:00 16,6 12,3 5 3 NNW 1020,8 10 -
18.10.2018 11:00:00 13,5 11,5 0 0 N 1021,4 10 -
18.10.2018 10:00:00 8,4 8,3 0 0 N 1021,6 10 -
18.10.2018 09:00:00 5,8 5,7 0 0 N 1021,3 10 -
18.10.2018 08:00:00 3,5 3,4 0 0 N 1021,2 10 -
18.10.2018 07:00:00 3,7 3,6 0 0 N 1020,6 10 -
18.10.2018 06:00:00 4,1 4,0 0 0 N 1020,2 10 -
18.10.2018 05:00:00 4,8 4,7 0 0 N 1019,8 10 -
18.10.2018 04:00:00 4,7 4,6 0 0 N 1019,8 10 -
18.10.2018 03:00:00 5,6 5,5 0 0 N 1019,6 10 -
18.10.2018 02:00:00 6,1 6,0 0 0 N 1020,2 10 -
18.10.2018 01:00:00 6,7 6,6 0 0 N 1020,2 10 -
18.10.2018 00:00:00 6,6 6,5 0 0 N 1020,3 10 -
17.10.2018 23:00:00 7,6 7,5 0 0 N 1020,3 10 -
17.10.2018 22:00:00 8,3 8,2 0 0 N 1020,7 10 -
17.10.2018 21:00:00 9,5 9,3 0 0 N 1020,6 10 -
17.10.2018 20:00:00 10,7 9,9 5 3 W 1020,3 10 -
17.10.2018 19:00:00 12,9 10,8 5 3 W 1019,7 10 -
17.10.2018 18:00:00 15,9 11,5 5 3 W 1019,2 10 -
17.10.2018 17:00:00 19,2 11,7 5 3 SE 1018,8 10 -
17.10.2018 16:00:00 19,6 11,6 5 3 E 1018,9 10 -
17.10.2018 15:00:00 19,1 11,6 5 3 NNE 1018,9 10 -
17.10.2018 14:00:00 18,5 12,0 0 0 N 1019,1 10 -
17.10.2018 13:00:00 17,2 11,9 8 4 E 1020,0 10 -
17.10.2018 12:00:00 15,6 11,8 8 4 ESE 1020,6 10 -
17.10.2018 11:00:00 13,2 11,3 5 3 E 1021,0 10 -
17.10.2018 10:00:00 9,0 8,8 0 0 N 1021,2 10 -
17.10.2018 09:00:00 5,4 5,3 0 0 N 1021,1 10 -
17.10.2018 08:00:00 4,1 4,0 0 0 N 1021,3 10 -
17.10.2018 07:00:00 4,7 4,6 0 0 N 1020,7 10 -

tt = Température de l'air
td = dewpoint
ff = Vitesse du vent
dd = Direction du vent
ppp = reduced air pressure
vv = visibility
rr = Quantités de précipitations

stations d'obs. à proximité